THY8CX LTFM-LEVC

Flight info

Callsign THY8CX
Flight time N/A
Altitude 32000
Route BARPE1D/35L BARPE UG12 GOLDO DCT PINDO DCT VEGAN DCT GOKMI DCT SUPUX DCT KUPIM DCT SUXER DCT RIPAL DCT MORSS DCT MHN DCT CDP N733 ARGOR
Aircraft B738/M-SDE2E3FGHIRWXY/LB1

Departure

Time N/A
Airport İstanbul Airport (LTFM)

Arrival

Time 2026-04-29 20:17
Airport Valencia Airport (LEVC)
Time Latitude Longitude Altitude Speed Heading
2026-04-29 19:06 40.43710 8.22111 35960 ft 420 kts 265°
2026-04-29 19:07 40.43090 8.10773 35967 ft 414 kts 265°
2026-04-29 19:07 40.42679 8.03238 35970 ft 414 kts 265°
2026-04-29 19:08 40.42079 7.95689 35980 ft 413 kts 261°
2026-04-29 19:08 40.41098 7.88312 35978 ft 414 kts 259°
2026-04-29 19:09 40.40077 7.80822 35977 ft 415 kts 259°
2026-04-29 19:09 40.39094 7.73340 35974 ft 417 kts 260°
2026-04-29 19:10 40.38123 7.65840 35975 ft 418 kts 260°
2026-04-29 19:10 40.37146 7.58308 35983 ft 419 kts 260°
2026-04-29 19:11 40.36163 7.50767 35971 ft 420 kts 260°
2026-04-29 19:11 40.35172 7.43215 35971 ft 421 kts 260°
2026-04-29 19:12 40.34225 7.36027 35970 ft 422 kts 260°
2026-04-29 19:12 40.33220 7.28443 35970 ft 423 kts 260°
2026-04-29 19:13 40.32418 7.22368 35973 ft 423 kts 260°
2026-04-29 19:13 40.31415 7.14767 35972 ft 423 kts 260°
2026-04-29 19:14 40.30408 7.07148 35969 ft 422 kts 260°
2026-04-29 19:14 40.29393 6.99565 35970 ft 422 kts 260°
2026-04-29 19:15 40.28378 6.92018 35979 ft 421 kts 260°
2026-04-29 19:15 40.27365 6.84507 35969 ft 421 kts 260°
2026-04-29 19:16 40.26345 6.76980 35972 ft 420 kts 260°
2026-04-29 19:16 40.25322 6.69464 35971 ft 419 kts 260°
2026-04-29 19:17 40.24295 6.61960 35972 ft 418 kts 260°
2026-04-29 19:17 40.23258 6.54417 35972 ft 418 kts 260°
2026-04-29 19:18 40.22225 6.46939 35970 ft 418 kts 260°
2026-04-29 19:18 40.21202 6.39577 35967 ft 418 kts 260°
2026-04-29 19:19 40.20146 6.32011 35971 ft 419 kts 260°
2026-04-29 19:19 40.19094 6.24506 35970 ft 420 kts 260°
2026-04-29 19:20 40.18032 6.16970 35967 ft 422 kts 260°
2026-04-29 19:20 40.16963 6.09421 35969 ft 423 kts 260°
2026-04-29 19:21 40.15885 6.01845 35966 ft 424 kts 261°
2026-04-29 19:21 40.14801 5.94261 35969 ft 425 kts 261°
2026-04-29 19:22 40.13708 5.86653 35965 ft 426 kts 261°
2026-04-29 19:22 40.12634 5.79100 35964 ft 426 kts 261°
2026-04-29 19:23 40.11556 5.71445 35967 ft 426 kts 261°
2026-04-29 19:23 40.10482 5.63855 35961 ft 424 kts 261°
2026-04-29 19:24 40.09413 5.56350 35957 ft 421 kts 261°
2026-04-29 19:24 40.08333 5.48814 35960 ft 418 kts 261°
2026-04-29 19:25 40.07269 5.41422 35956 ft 415 kts 261°
2026-04-29 19:25 40.06194 5.33989 35961 ft 413 kts 261°
2026-04-29 19:26 40.05127 5.26650 35963 ft 411 kts 261°
2026-04-29 19:26 40.04059 5.19331 35969 ft 411 kts 261°
2026-04-29 19:27 40.02985 5.12004 35965 ft 411 kts 261°
2026-04-29 19:27 40.01904 5.04666 35966 ft 412 kts 261°
2026-04-29 19:28 40.00818 4.97327 35968 ft 414 kts 261°
2026-04-29 19:28 39.99720 4.89944 35965 ft 415 kts 261°
2026-04-29 19:29 39.98609 4.82496 35972 ft 423 kts 260°
2026-04-29 19:29 39.97410 4.74912 35967 ft 431 kts 257°
2026-04-29 19:30 39.95966 4.67885 35943 ft 408 kts 257°
2026-04-29 19:30 39.95320 4.64359 35946 ft 393 kts 259°
2026-04-29 19:30 39.94753 4.60942 35944 ft 382 kts 260°
2026-04-29 19:31 39.93865 4.55404 35962 ft 389 kts 260°
2026-04-29 19:31 39.92645 4.48432 35973 ft 401 kts 255°
2026-04-29 19:32 39.90963 4.41424 35978 ft 411 kts 254°
2026-04-29 19:32 39.89260 4.34211 35977 ft 420 kts 255°
2026-04-29 19:33 39.87589 4.26852 35974 ft 427 kts 255°
2026-04-29 19:33 39.85915 4.19414 35959 ft 429 kts 256°
2026-04-29 19:34 39.84334 4.11880 35960 ft 429 kts 256°
2026-04-29 19:34 39.82785 4.04395 35960 ft 428 kts 256°
2026-04-29 19:35 39.81224 3.96932 35961 ft 427 kts 256°
2026-04-29 19:35 39.79655 3.89499 35961 ft 426 kts 256°
2026-04-29 19:36 39.78083 3.82080 35955 ft 425 kts 256°
2026-04-29 19:36 39.76768 3.75897 35955 ft 423 kts 256°
2026-04-29 19:37 39.75197 3.68529 35958 ft 422 kts 256°
2026-04-29 19:37 39.73614 3.61131 35954 ft 421 kts 256°
2026-04-29 19:38 39.72046 3.53823 35954 ft 420 kts 256°
2026-04-29 19:38 39.70472 3.46517 35954 ft 420 kts 256°
2026-04-29 19:39 39.69554 3.39037 35963 ft 416 kts 268°
2026-04-29 19:39 39.69299 3.31225 35959 ft 416 kts 268°
2026-04-29 19:40 39.69031 3.23750 35963 ft 417 kts 268°
2026-04-29 19:40 39.68736 3.16189 35956 ft 418 kts 268°
2026-04-29 19:41 39.68429 3.08633 35953 ft 419 kts 268°
2026-04-29 19:41 39.68115 3.01004 35961 ft 420 kts 268°
2026-04-29 19:42 39.67801 2.93503 35951 ft 420 kts 268°
2026-04-29 19:42 39.67477 2.85873 35955 ft 420 kts 267°
2026-04-29 19:43 39.67150 2.78303 35966 ft 420 kts 267°
2026-04-29 19:43 39.66818 2.70716 35971 ft 420 kts 267°
2026-04-29 19:44 39.66483 2.63150 35971 ft 420 kts 267°
2026-04-29 19:44 39.66157 2.55585 35960 ft 420 kts 267°
2026-04-29 19:45 39.65840 2.48032 35968 ft 419 kts 267°
2026-04-29 19:45 39.65501 2.40470 35949 ft 419 kts 267°
2026-04-29 19:46 39.65145 2.32937 35952 ft 418 kts 267°
2026-04-29 19:46 39.64787 2.25415 35954 ft 417 kts 266°
2026-04-29 19:47 39.64427 2.17912 35945 ft 416 kts 266°
2026-04-29 19:47 39.64063 2.10419 35950 ft 416 kts 266°
2026-04-29 19:48 39.63693 2.02887 35953 ft 415 kts 266°
2026-04-29 19:48 39.63320 1.95414 35948 ft 415 kts 266°
2026-04-29 19:49 39.62943 1.87935 35949 ft 415 kts 266°
2026-04-29 19:49 39.62561 1.80467 35945 ft 416 kts 266°
2026-04-29 19:50 39.62174 1.72981 35948 ft 416 kts 266°
2026-04-29 19:50 39.61782 1.65507 35951 ft 416 kts 266°
2026-04-29 19:51 39.61384 1.58007 35946 ft 416 kts 266°
2026-04-29 19:51 39.60983 1.50529 35957 ft 416 kts 265°
2026-04-29 19:52 39.60576 1.43030 35952 ft 417 kts 265°
2026-04-29 19:52 39.60162 1.35491 35318 ft 422 kts 265°
2026-04-29 19:52 39.59953 1.31709 34716 ft 420 kts 265°
2026-04-29 19:53 39.59743 1.27929 34055 ft 421 kts 265°
2026-04-29 19:53 39.59531 1.24129 33294 ft 422 kts 265°
2026-04-29 19:53 39.59318 1.20331 32549 ft 423 kts 265°
2026-04-29 19:53 39.59105 1.16552 31809 ft 423 kts 265°
2026-04-29 19:54 39.58670 1.08906 30336 ft 425 kts 265°
2026-04-29 19:54 39.58453 1.05118 29798 ft 421 kts 265°
2026-04-29 19:54 39.58236 1.01343 29188 ft 417 kts 265°
2026-04-29 19:55 39.58020 0.97617 28626 ft 411 kts 265°
2026-04-29 19:55 39.57805 0.93937 28075 ft 407 kts 265°
2026-04-29 19:55 39.57592 0.90300 27531 ft 403 kts 265°
2026-04-29 19:55 39.57380 0.86700 27005 ft 399 kts 265°
2026-04-29 19:56 39.57168 0.83128 26483 ft 396 kts 265°
2026-04-29 19:56 39.56957 0.79585 25966 ft 393 kts 264°
2026-04-29 19:56 39.56747 0.76073 25464 ft 390 kts 264°
2026-04-29 19:56 39.56537 0.72582 24954 ft 388 kts 264°
2026-04-29 19:57 39.56327 0.69106 24434 ft 386 kts 264°
2026-04-29 19:57 39.56188 0.66810 24082 ft 385 kts 264°
2026-04-29 19:57 39.55906 0.62195 23356 ft 384 kts 264°
2026-04-29 19:57 39.55694 0.58738 22462 ft 389 kts 264°
2026-04-29 19:58 39.55481 0.55257 21939 ft 385 kts 264°
2026-04-29 19:58 39.55340 0.52967 21565 ft 384 kts 264°
2026-04-29 19:58 39.55129 0.49543 21046 ft 380 kts 264°
2026-04-29 19:58 39.54919 0.46142 20542 ft 377 kts 264°
2026-04-29 19:59 39.54709 0.42775 20052 ft 373 kts 264°
2026-04-29 19:59 39.54501 0.39438 19568 ft 370 kts 264°
2026-04-29 19:59 39.54294 0.36122 19099 ft 368 kts 264°
2026-04-29 19:59 39.54086 0.32829 18611 ft 366 kts 264°
2026-04-29 20:00 39.53878 0.29555 18107 ft 364 kts 264°
2026-04-29 20:00 39.53668 0.26291 17510 ft 363 kts 264°
2026-04-29 20:00 39.53456 0.23052 17020 ft 360 kts 264°
2026-04-29 20:00 39.53243 0.19834 16532 ft 357 kts 264°
2026-04-29 20:01 39.53033 0.16647 16059 ft 354 kts 264°
2026-04-29 20:01 39.52823 0.13478 15593 ft 351 kts 264°
2026-04-29 20:01 39.52614 0.10339 15133 ft 349 kts 264°
2026-04-29 20:01 39.52406 0.07222 14677 ft 347 kts 264°
2026-04-29 20:02 39.52199 0.04130 14223 ft 345 kts 264°
2026-04-29 20:02 39.51991 0.01039 13748 ft 343 kts 264°
2026-04-29 20:02 39.51784 -0.02033 13263 ft 342 kts 263°
2026-04-29 20:02 39.51646 -0.04064 12936 ft 341 kts 263°
2026-04-29 20:03 39.51370 -0.08135 12294 ft 338 kts 263°
2026-04-29 20:03 39.51164 -0.11143 11850 ft 336 kts 263°
2026-04-29 20:03 39.50958 -0.14159 11400 ft 334 kts 263°
2026-04-29 20:03 39.50753 -0.17135 10956 ft 332 kts 263°
2026-04-29 20:04 39.50550 -0.20076 10799 ft 322 kts 263°
2026-04-29 20:04 39.50354 -0.22921 10640 ft 312 kts 263°
2026-04-29 20:04 39.50163 -0.25677 10496 ft 302 kts 263°
2026-04-29 20:04 39.49978 -0.28329 10373 ft 293 kts 263°
2026-04-29 20:05 39.49793 -0.30976 10242 ft 285 kts 263°
2026-04-29 20:05 39.49616 -0.33486 10128 ft 276 kts 263°
2026-04-29 20:05 39.49443 -0.35954 10010 ft 268 kts 263°
2026-04-29 20:05 39.49273 -0.38352 9742 ft 267 kts 263°
2026-04-29 20:06 39.49104 -0.40730 9458 ft 265 kts 263°
2026-04-29 20:06 39.48936 -0.43094 9186 ft 263 kts 263°
2026-04-29 20:06 39.48768 -0.45449 8916 ft 261 kts 263°
2026-04-29 20:06 39.48648 -0.47677 8669 ft 261 kts 272°
2026-04-29 20:07 39.49150 -0.49904 8423 ft 260 kts 296°
2026-04-29 20:07 39.49977 -0.51983 8099 ft 260 kts 296°
2026-04-29 20:07 39.50813 -0.54051 7855 ft 258 kts 296°
2026-04-29 20:07 39.51639 -0.56104 7594 ft 257 kts 296°
2026-04-29 20:08 39.52474 -0.58188 7329 ft 256 kts 296°
2026-04-29 20:08 39.53022 -0.59559 7162 ft 255 kts 296°
2026-04-29 20:08 39.54112 -0.62303 6807 ft 254 kts 296°
2026-04-29 20:08 39.54928 -0.64360 6542 ft 254 kts 296°
2026-04-29 20:09 39.55725 -0.66372 6256 ft 254 kts 296°
2026-04-29 20:09 39.56539 -0.68431 5962 ft 254 kts 296°
2026-04-29 20:09 39.57343 -0.70467 5667 ft 253 kts 297°
2026-04-29 20:09 39.58144 -0.72497 5404 ft 253 kts 296°
2026-04-29 20:10 39.58879 -0.74564 5168 ft 250 kts 284°
2026-04-29 20:10 39.58876 -0.76767 5062 ft 247 kts 253°
2026-04-29 20:10 39.58065 -0.78695 5006 ft 248 kts 225°
2026-04-29 20:10 39.56654 -0.79974 4984 ft 248 kts 200°
2026-04-29 20:11 39.55005 -0.80262 4973 ft 232 kts 172°
2026-04-29 20:11 39.53582 -0.79584 4982 ft 208 kts 148°
2026-04-29 20:11 39.52538 -0.78436 4974 ft 192 kts 130°
2026-04-29 20:11 39.52076 -0.76835 4974 ft 193 kts 84°
2026-04-29 20:12 39.52519 -0.75255 5007 ft 184 kts 65°
2026-04-29 20:12 39.53013 -0.73730 4923 ft 182 kts 68°
2026-04-29 20:12 39.53445 -0.72233 4702 ft 174 kts 70°
2026-04-29 20:12 39.53837 -0.70771 4386 ft 168 kts 71°
2026-04-29 20:13 39.54199 -0.69398 4384 ft 161 kts 71°
2026-04-29 20:13 39.54477 -0.68415 4468 ft 184 kts 66°
2026-04-29 20:13 39.55465 -0.66624 4422 ft 180 kts 53°
2026-04-29 20:13 39.55807 -0.65172 4205 ft 165 kts 101°
2026-04-29 20:14 39.55210 -0.63969 3861 ft 161 kts 133°
2026-04-29 20:14 39.54562 -0.62802 3485 ft 157 kts 119°
2026-04-29 20:14 39.54034 -0.61627 3130 ft 148 kts 116°
2026-04-29 20:14 39.53568 -0.60449 2944 ft 147 kts 114°
2026-04-29 20:15 39.53109 -0.59252 2906 ft 148 kts 114°
2026-04-29 20:15 39.52632 -0.58039 2712 ft 153 kts 114°
2026-04-29 20:15 39.52156 -0.56832 2651 ft 147 kts 115°
2026-04-29 20:15 39.51694 -0.55663 2301 ft 147 kts 114°
2026-04-29 20:16 39.51240 -0.54465 1842 ft 143 kts 113°
2026-04-29 20:16 39.50829 -0.53293 1299 ft 147 kts 112°
2026-04-29 20:16 39.50407 -0.52076 800 ft 145 kts 113°
2026-04-29 20:16 39.49977 -0.50904 431 ft 140 kts 115°
2026-04-29 20:17 39.49550 -0.49796 235 ft 134 kts 114°
2026-04-29 20:17 39.49180 -0.48816 210 ft 107 kts 116°
2026-04-29 20:17 39.48949 -0.48190 209 ft 67 kts 114°
2026-04-29 20:17 39.48792 -0.47778 212 ft 41 kts 116°
2026-04-29 20:18 39.48686 -0.47501 218 ft 30 kts 116°
2026-04-29 20:18 39.48642 -0.47353 213 ft 5 kts 78°
2026-04-29 20:18 39.48654 -0.47302 213 ft 7 kts 72°
2026-04-29 20:18 39.48675 -0.47241 215 ft 8 kts 62°
2026-04-29 20:19 39.48714 -0.47193 209 ft 8 kts 19°
2026-04-29 20:19 39.48769 -0.47185 217 ft 8 kts 354°
2026-04-29 20:19 39.48820 -0.47207 213 ft 8 kts 338°
2026-04-29 20:19 39.48866 -0.47232 211 ft 7 kts 338°
2026-04-29 20:20 39.48912 -0.47262 214 ft 7 kts 320°
2026-04-29 20:20 39.48939 -0.47309 211 ft 5 kts 335°
2026-04-29 20:20 39.48974 -0.47304 208 ft 6 kts 19°
2026-04-29 20:20 39.49010 -0.47289 212 ft 4 kts 18°
2026-04-29 20:21 39.49023 -0.47284 210 ft 0 kts 18°